SCP
0 0 0 0 0 0 0 0 0 0 0 0 0 -0 -0 0 0 0 0 0 0 0 0 0 0 0 0 0 0 0 0 -0 -0 -0 -0 -0 -0 -0 -0 -0 -0 0 0 -0
0 0 0 0 0 0 0 0 0 0 0 0 -0 -0 -0 -0 -0 0 0 0 0 0 0 0 0 0 0 0 0 0 0 -0 -0 -0 -0 -0 -0 -0 -0 -0 -0 -0 -0 -0
0 0 0 0 0 0 0 0 0 0 0 0 0 0 0 0 0 0 0 0 0 0 0 0 0 0 0 0 0 0 0 -0 -0 -0 -0 -0 -0 -0 -0 -0 -0 -0 -0 0
0 0 0 0 0 0 0 0 0 0 0 0 0 0 0 0 0 0 0 0 0 0 0 0 0 0 0 0 0 0 -0 -0 -0 -0 -0 -0 -0 -0 -0 0 -0 0 0 0
0 0 0 0 0 0 0 0 0 0 0 0 0 0 0 0 0 0 0 0 0 0 0 0 0 0 0 0 0 0 0 0 0 0 -0 -0 -0 -0 0 -0 0 0 0 0
0 0 0 0 0 0 0 0 0 0 0 0 0 0 0 0 0 0 0 0 0 0 0 0 0 -0 0 0 0 0 0 0 0 0 0 0 0 -0 0 0 0 0 0 0
0 0 0 0 0 0 0 0 0 0 0 0 0 0 0 0 0 0 0 0 0 0 0 0 0 0 0 0 0 0 0 0 0 0 0 0 0 0 0 0 0 0 0 0
0 0 0 0 0 0 0 0 0 0 0 0 0 0 0 0 0 0 0 0 0 0 0 0 0 0 0 0 0 0 0 0 0 0 0 0 0 0 0 0 0 0 0 0
0 0 0 0 0 0 0 0 0 0 0 0 0 0 0 0 0 0 0 -0 0 0 0 0 0 0 0 0 0 0 0 0 0 0 0 0 0 0 0 0 0 0 0 0
0 0 0 0 0 0 0 0 0 0 0 0 0 0 0 -0 -0 -0 -0 -0 0 0 0 0 0 0 0 0 0 0 0 0 0 0 0 0 0 0 0 0 0 0 0 0
0 0 0 0 0 0 0 0 0 0 0 0 0 0 0 -0 -0 -0 -0 0 0 0 0 0 0 0 0 0 0 0 0 0 0 0 0 0 0 0 0 0 0 0 0 0
0 0 -0 -0 -0 -0 -0 -0 -0 0 0 0 0 0 0 0 0 0 0 0 0 0 0 0 0 0 0 0 0 0 0 0 0 0 0 0 0 0 0 0 0 0 0 0
0 0 0 -0 -0 -0 -0 -0 -0 -0 -0 -0 0 0 0 0 0 0 0 0 0 0 0 0 0 0 0 0 0 0 0 0 0 0 0 0 0 0 0 0 0 0 0 0
0 0 -0 -0 -0 -0 -0 -0 -0 -0 -0 -0 -0 -0 -0 -0 -0 -0 -0 -0 0 0 0 0 0 0 0 0 0 0 0 0 0 0 0 0 0 0 0 0 0 0 0 0
0 0 0 -0 -0 -0 0 -0 -0 -0 -0 -0 -0 -0 -0 -0 -0 -0 0 0 0 0 0 0 0 0 0 0 0 0 0 0 0 0 0 0 0 0 0 0 0 0 0 0
0 0 0 -0 -0 -0 0 0 0 0 0 0 0 0 0 0 0 0 0 0 0 0 0 0 0 0 0 0 0 0 0 0 0 0 0 0 0 0 0 0 0 0 0 0
0 0 0 0 -0 -0 -0 -0 0 0 0 0 0 0 0 0 0 0 0 0 0 0 0 0 0 0 0 0 0 0 0 0 0 0 0 0 0 0 0 0 0 0 0 0
0 0 0 0 -0 -0 -0 -0 0 0 0 0 0 0 0 0 0 0 0 0 0 0 0 0 0 0 0 0 0 0 0 0 0 0 0 0 0 0 0 0 0 0 0 0
0 0 0 -0 -0 -0 -0 -0 0 0 0 0 0 0 0 0 0 0 0 0 0 0 0 0 0 0 0 0 0 0 0 0 0 0 0 0 0 0 0 0 0 0 0 0
0 0 0 0 0 -0 -0 0 0 0 0 0 0 0 0 0 0 0 0 0 0 0 0 0 0 0 0 0 0 0 0 0 0 0 0 0 0 0 0 0 0 0 0 0
0 0 0 0 0 0 0 0 0 0 0 0 0 0 0 0 0 0 0 0 0 0 0 0 0 0 0 0 0 0 0 0 0 0 0 0 0 0 0 0 0 0 0 0
0 0 0 0 0 0 0 0 0 0 0 0 0 0 0 0 0 0 0 0 0 0 0 0 0 0 0 0 0 0 0 0 0 0 0 0 0 0 0 0 0 0 0 0
0 0 0 0 0 0 0 0 0 0 0 0 0 0 0 0 0 0 0 0 0 0 0 0 0 0 0 0 0 0 0 0 0 0 0 0 0 0 0 0 0 0 0 0
0 0 0 0 0 0 0 0 0 0 0 0 0 0 0 0 0 0 0 0 0 0 0 0 0 0 0 0 0 0 0 0 0 0 0 0 0 0 0 0 0 0 0 0
0 0 0 0 0 0 0 0 0 0 0 0 0 0 0 0 0 0 0 0 0 0 0 0 0 0 0 0 0 0 0 0 0 0 0 0 0 0 0 0 0 0 0 0
0 0 0 0 0 0 0 0 0 0 0 0 0 0 0 0 0 0 0 0 0 0 0 0 0 0 0 0 0 0 0 0 0 0 0 0 0 0 0 0 0 0 0 0
0 0 0 0 0 0 0 0 0 0 0 0 0 0 0 0 0 0 0 0 0 0 0 0 0 0 0 0 0 0 0 0 0 0 0 0 0 0 0 0 0 0 0 0
Wind_Speed_500mb
10 6 3 4 2 11 10 8 3 14 21 18 16 16 29 38 44 51 58 62 63 63 60 52 47 61 99 105 105 104 105 106 106 100 97 94 91 89 88 86 81 77 74 73
8 9 8 10 7 3 8 10 7 4 4 21 21 26 38 37 43 53 51 54 52 61 46 46 49 80 101 102 101 98 100 102 97 92 91 89 87 85 83 81 75 71 70 64
7 8 7 8 4 4 0 1 5 10 9 17 19 30 40 44 42 46 46 48 50 40 40 43 63 84 95 95 91 92 93 91 88 84 84 80 78 75 76 69 64 66 62 58
8 6 10 10 2 15 11 6 4 3 7 3 6 21 37 35 35 41 43 43 39 42 47 59 72 81 83 83 83 84 87 85 80 77 77 73 69 69 64 59 60 57 56 56
3 1 5 2 8 10 9 5 9 6 0 4 9 11 32 34 36 33 30 33 35 44 53 62 71 74 77 77 77 77 79 75 72 67 65 61 60 57 55 54 53 50 51 46
5 2 4 9 6 18 8 6 20 18 14 11 6 7 6 11 24 29 30 31 36 44 53 62 64 64 68 72 70 73 69 65 60 58 57 56 54 51 47 44 45 43 44 45
4 5 11 7 22 18 9 10 40 35 28 20 5 6 21 21 25 30 37 39 42 45 52 54 54 55 61 62 64 61 58 55 52 50 48 47 46 43 40 36 35 37 37 33
3 2 12 32 18 12 12 36 47 37 33 28 30 33 28 28 30 35 40 42 44 46 49 48 45 43 52 55 53 48 45 43 42 40 40 39 34 33 31 33 36 29 28 34
12 9 4 50 5 15 50 59 45 41 40 44 44 41 38 38 37 35 35 35 35 38 42 44 43 42 47 50 44 40 37 37 35 33 32 29 25 29 30 28 24 29 29 31
7 4 9 43 22 28 47 51 50 46 52 49 48 45 41 39 37 36 35 34 35 35 35 37 36 37 39 40 36 30 29 30 29 25 24 23 25 25 23 23 25 27 27 28
9 3 6 27 50 44 55 49 53 51 52 51 50 50 48 46 43 41 39 38 37 36 36 36 35 33 33 32 27 21 22 24 24 21 20 20 17 16 17 20 23 27 31 32
12 28 15 28 68 69 69 68 60 61 60 53 51 51 50 48 46 44 43 41 40 37 33 34 34 31 30 27 23 18 17 18 16 15 16 17 18 19 21 25 29 31 30 32
6 11 21 15 74 81 76 72 66 61 54 57 54 51 50 49 47 46 44 41 39 35 32 30 30 27 26 24 20 15 11 11 12 12 11 10 10 10 11 13 16 19 23 25
25 39 19 52 79 83 76 70 64 59 55 52 52 50 46 47 47 47 45 41 39 36 33 30 28 27 26 24 21 16 11 8 6 3 2 3 5 8 11 12 14 17 21 25
41 42 23 37 53 80 77 75 73 70 66 63 58 52 52 53 51 48 47 45 43 41 39 37 34 31 27 23 20 17 12 10 7 4 2 5 9 12 15 18 21 24 28 34
52 50 24 39 66 84 84 81 80 78 74 69 65 62 55 50 48 50 52 53 54 50 45 43 38 34 31 28 25 21 19 15 11 7 6 9 13 17 22 26 29 31 34 40
60 58 52 50 75 90 97 89 85 82 78 75 68 62 59 57 56 58 59 56 50 45 44 44 41 41 38 35 31 28 24 21 18 15 13 14 16 20 24 28 32 35 37 41
47 60 68 63 74 86 93 91 86 82 79 70 68 67 66 67 67 64 63 58 56 56 56 50 49 47 44 41 39 35 32 30 26 23 20 19 21 24 28 31 34 39 40 42
54 55 51 60 58 71 85 89 87 80 75 74 74 75 71 68 66 63 60 62 65 65 62 58 57 57 54 51 48 44 42 38 35 31 27 25 25 27 30 34 38 42 44 44
54 56 56 44 60 57 72 82 85 81 77 74 75 76 76 75 72 69 68 70 65 60 56 57 60 59 57 57 55 52 49 45 41 37 34 31 30 31 34 35 38 41 45 46
31 57 55 60 51 56 58 67 78 82 78 76 76 78 77 74 74 74 77 79 70 67 63 62 65 62 62 61 60 58 55 51 47 42 38 35 34 35 36 38 40 43 46 47
15 48 49 54 52 47 56 54 59 71 75 76 75 77 78 79 79 80 80 77 71 68 69 68 70 69 65 62 63 61 59 55 50 47 43 39 38 38 39 41 42 44 47 47
16 23 47 48 55 47 43 50 53 55 64 69 73 77 79 79 80 82 82 76 79 77 75 73 70 70 66 65 67 65 61 57 53 47 45 43 41 43 45 44 40 44 47 47
8 15 39 39 43 54 55 45 45 50 53 56 63 68 73 79 81 82 80 81 76 75 75 75 69 68 70 71 70 68 64 59 53 46 46 46 46 46 43 41 40 43 46 47
5 14 33 24 27 39 46 46 45 42 46 52 56 59 65 70 75 78 77 75 74 72 71 69 69 72 71 71 72 67 63 57 50 47 47 48 46 43 39 37 38 41 43 45
13 7 17 14 13 20 31 41 47 47 45 46 49 51 52 55 62 68 71 69 69 67 65 65 65 67 71 70 68 66 61 55 52 54 48 45 41 38 36 34 36 39 39 44
15 9 1 11 17 20 22 28 37 43 45 47 49 47 46 45 48 51 55 58 61 60 61 60 60 61 60 63 65 64 59 55 56 54 46 40 36 34 32 32 34 36 36 40
Wind_Direction_500mb
276 237 225 130 352 14 11 344 58 310 316 9 1 1 6 1 19 35 42 49 53 53 69 64 62 78 97 100 102 103 103 104 102 103 102 103 103 101 98 97 95 94 92 90
270 240 164 313 73 73 40 343 306 301 301 359 3 26 34 19 28 25 42 60 63 66 66 60 71 87 97 100 102 104 104 104 106 106 106 104 102 99 97 97 97 92 86 85
292 181 148 5 316 91 341 270 290 24 306 355 354 21 27 24 36 41 49 68 74 55 62 72 87 98 101 104 107 106 106 106 105 105 103 101 100 100 97 95 94 89 86 82
280 77 37 242 46 138 138 217 265 264 333 310 46 50 55 53 50 65 75 81 82 79 84 92 99 100 102 105 106 107 105 104 104 103 101 101 99 93 94 94 88 85 82 77
54 276 209 161 222 175 148 288 194 161 351 27 314 331 40 59 74 79 80 86 88 93 96 100 101 105 106 106 105 103 102 101 100 100 101 100 98 98 92 86 85 81 76 75
343 116 226 211 217 138 116 348 185 168 192 168 157 37 280 88 105 113 111 107 108 107 107 106 106 108 109 108 107 103 104 104 106 105 103 99 95 91 89 88 85 81 73 64
238 270 292 178 155 149 84 220 170 176 181 185 219 182 155 139 126 125 122 119 116 115 111 108 112 115 111 109 103 104 105 106 105 101 97 92 90 86 83 82 80 74 68 64
60 33 305 149 131 164 167 145 164 173 182 183 159 152 152 141 132 129 127 129 129 125 120 119 117 115 109 106 106 109 109 107 103 103 102 96 92 90 84 73 64 66 60 50
180 215 159 180 155 166 160 155 167 167 164 163 159 160 157 155 152 149 146 140 135 131 128 127 125 122 119 112 113 110 111 108 105 97 95 97 92 78 67 63 55 48 43 38
37 235 205 194 181 171 169 162 163 167 164 169 166 166 165 166 164 160 157 154 145 138 134 129 127 124 115 114 115 118 115 108 102 100 95 85 73 67 58 50 41 34 29 22
260 162 185 223 211 186 176 174 170 172 176 175 177 176 174 173 174 173 167 161 156 154 148 140 133 129 124 122 118 119 110 105 104 101 93 84 78 69 50 37 29 23 16 9
220 196 180 207 192 183 180 180 181 178 179 185 186 182 182 182 180 178 175 172 169 165 159 152 147 144 137 129 125 119 109 99 89 75 61 48 35 25 18 16 13 6 358 353
250 221 193 205 183 182 184 185 186 188 189 185 187 191 188 186 186 184 183 182 180 176 171 168 160 156 147 138 130 120 117 108 86 68 51 34 18 5 352 347 344 344 347 344
223 172 151 176 181 186 188 188 190 191 193 194 194 191 194 193 193 192 192 189 188 186 183 181 178 175 169 159 153 154 141 119 112 102 73 13 354 350 347 338 334 343 346 342
208 202 211 195 190 189 190 191 193 196 195 195 198 200 197 199 201 200 198 199 198 197 197 196 194 190 183 180 183 183 181 189 192 200 294 337 346 350 348 347 346 343 343 345
198 206 206 200 194 194 194 196 200 200 200 200 200 201 203 204 204 205 207 207 207 206 203 204 203 201 200 202 207 204 207 215 225 246 287 322 339 343 344 348 348 343 341 343
189 201 201 198 199 199 202 204 206 207 205 205 205 204 203 204 206 210 212 214 214 213 216 216 213 212 211 213 218 220 224 231 241 256 280 301 316 326 335 340 342 341 338 340
225 224 217 214 206 205 206 208 210 212 212 212 209 209 209 210 213 213 214 215 216 217 218 216 217 220 222 224 227 230 235 242 250 258 272 287 302 316 324 330 334 336 337 339
222 224 227 228 223 218 215 214 214 216 215 215 214 216 218 221 221 221 220 220 223 224 225 221 221 224 225 227 231 234 238 244 251 258 267 278 291 302 312 322 328 332 334 333
216 214 219 222 225 228 224 222 220 220 219 218 220 221 222 224 225 225 226 230 236 240 231 230 231 231 231 232 235 238 242 244 249 256 265 276 288 297 306 314 320 326 329 330
224 208 216 217 219 224 229 230 227 225 225 223 224 226 228 229 230 231 231 234 236 236 234 234 237 237 235 235 237 240 243 247 251 257 263 272 282 290 299 307 315 322 326 328
234 210 215 217 218 223 224 228 230 231 231 230 230 230 231 233 234 236 240 244 247 242 242 237 238 239 238 238 241 242 244 246 250 254 261 268 279 286 293 299 308 315 321 325
253 229 213 215 218 222 228 229 231 232 234 235 236 237 238 240 240 239 242 244 245 245 243 243 241 244 242 241 243 244 244 245 248 253 258 263 277 283 287 293 300 310 319 325
270 229 200 206 217 223 227 229 233 236 239 241 242 243 243 243 245 246 246 251 250 252 254 252 248 245 245 242 243 243 244 245 246 252 257 260 274 284 289 293 298 307 319 324
22 177 177 201 227 231 231 232 237 240 242 244 245 246 245 245 247 252 252 254 256 256 254 254 250 245 245 243 242 242 243 245 245 251 255 260 275 286 286 291 294 307 318 321
48 128 185 212 241 243 240 240 244 246 248 251 253 254 254 253 252 253 255 255 254 255 254 251 250 247 244 242 241 241 241 240 238 251 254 258 273 279 281 286 293 309 316 322
55 64 208 249 258 264 261 255 253 254 254 255 258 260 261 260 259 259 259 257 256 254 254 253 249 246 244 241 239 238 236 235 237 251 253 255 267 272 276 280 294 307 314 321
Wind_Speed_850mb
10 6 3 4 2 11 10 8 3 14 21 18 16 16 29 38 44 51 58 62 63 63 60 52 47 61 99 105 105 104 105 106 106 100 97 94 91 89 88 86 81 77 74 73
8 9 8 10 7 3 8 10 7 4 4 21 21 26 38 37 43 53 51 54 52 61 46 46 49 80 101 102 101 98 100 102 97 92 91 89 87 85 83 81 75 71 70 64
7 8 7 8 4 4 0 1 5 10 9 17 19 30 40 44 42 46 46 48 50 40 40 43 63 84 95 95 91 92 93 91 88 84 84 80 78 75 76 69 64 66 62 58
8 6 10 10 2 15 11 6 4 3 7 3 6 21 37 35 35 41 43 43 39 42 47 59 72 81 83 83 83 84 87 85 80 77 77 73 69 69 64 59 60 57 56 56
3 1 5 2 8 10 9 5 9 6 0 4 9 11 32 34 36 33 30 33 35 44 53 62 71 74 77 77 77 77 79 75 72 67 65 61 60 57 55 54 53 50 51 46
5 2 4 9 6 18 8 6 20 18 14 11 6 7 6 11 24 29 30 31 36 44 53 62 64 64 68 72 70 73 69 65 60 58 57 56 54 51 47 44 45 43 44 45
4 5 11 7 22 18 9 10 40 35 28 20 5 6 21 21 25 30 37 39 42 45 52 54 54 55 61 62 64 61 58 55 52 50 48 47 46 43 40 36 35 37 37 33
3 2 12 32 18 12 12 36 47 37 33 28 30 33 28 28 30 35 40 42 44 46 49 48 45 43 52 55 53 48 45 43 42 40 40 39 34 33 31 33 36 29 28 34
12 9 4 50 5 15 50 59 45 41 40 44 44 41 38 38 37 35 35 35 35 38 42 44 43 42 47 50 44 40 37 37 35 33 32 29 25 29 30 28 24 29 29 31
7 4 9 43 22 28 47 51 50 46 52 49 48 45 41 39 37 36 35 34 35 35 35 37 36 37 39 40 36 30 29 30 29 25 24 23 25 25 23 23 25 27 27 28
9 3 6 27 50 44 55 49 53 51 52 51 50 50 48 46 43 41 39 38 37 36 36 36 35 33 33 32 27 21 22 24 24 21 20 20 17 16 17 20 23 27 31 32
12 28 15 28 68 69 69 68 60 61 60 53 51 51 50 48 46 44 43 41 40 37 33 34 34 31 30 27 23 18 17 18 16 15 16 17 18 19 21 25 29 31 30 32
6 11 21 15 74 81 76 72 66 61 54 57 54 51 50 49 47 46 44 41 39 35 32 30 30 27 26 24 20 15 11 11 12 12 11 10 10 10 11 13 16 19 23 25
25 39 19 52 79 83 76 70 64 59 55 52 52 50 46 47 47 47 45 41 39 36 33 30 28 27 26 24 21 16 11 8 6 3 2 3 5 8 11 12 14 17 21 25
41 42 23 37 53 80 77 75 73 70 66 63 58 52 52 53 51 48 47 45 43 41 39 37 34 31 27 23 20 17 12 10 7 4 2 5 9 12 15 18 21 24 28 34
52 50 24 39 66 84 84 81 80 78 74 69 65 62 55 50 48 50 52 53 54 50 45 43 38 34 31 28 25 21 19 15 11 7 6 9 13 17 22 26 29 31 34 40
60 58 52 50 75 90 97 89 85 82 78 75 68 62 59 57 56 58 59 56 50 45 44 44 41 41 38 35 31 28 24 21 18 15 13 14 16 20 24 28 32 35 37 41
47 60 68 63 74 86 93 91 86 82 79 70 68 67 66 67 67 64 63 58 56 56 56 50 49 47 44 41 39 35 32 30 26 23 20 19 21 24 28 31 34 39 40 42
54 55 51 60 58 71 85 89 87 80 75 74 74 75 71 68 66 63 60 62 65 65 62 58 57 57 54 51 48 44 42 38 35 31 27 25 25 27 30 34 38 42 44 44
54 56 56 44 60 57 72 82 85 81 77 74 75 76 76 75 72 69 68 70 65 60 56 57 60 59 57 57 55 52 49 45 41 37 34 31 30 31 34 35 38 41 45 46
31 57 55 60 51 56 58 67 78 82 78 76 76 78 77 74 74 74 77 79 70 67 63 62 65 62 62 61 60 58 55 51 47 42 38 35 34 35 36 38 40 43 46 47
15 48 49 54 52 47 56 54 59 71 75 76 75 77 78 79 79 80 80 77 71 68 69 68 70 69 65 62 63 61 59 55 50 47 43 39 38 38 39 41 42 44 47 47
16 23 47 48 55 47 43 50 53 55 64 69 73 77 79 79 80 82 82 76 79 77 75 73 70 70 66 65 67 65 61 57 53 47 45 43 41 43 45 44 40 44 47 47
8 15 39 39 43 54 55 45 45 50 53 56 63 68 73 79 81 82 80 81 76 75 75 75 69 68 70 71 70 68 64 59 53 46 46 46 46 46 43 41 40 43 46 47
5 14 33 24 27 39 46 46 45 42 46 52 56 59 65 70 75 78 77 75 74 72 71 69 69 72 71 71 72 67 63 57 50 47 47 48 46 43 39 37 38 41 43 45
13 7 17 14 13 20 31 41 47 47 45 46 49 51 52 55 62 68 71 69 69 67 65 65 65 67 71 70 68 66 61 55 52 54 48 45 41 38 36 34 36 39 39 44
15 9 1 11 17 20 22 28 37 43 45 47 49 47 46 45 48 51 55 58 61 60 61 60 60 61 60 63 65 64 59 55 56 54 46 40 36 34 32 32 34 36 36 40
Wind_Direction_850mb
276 237 225 130 352 14 11 344 58 310 316 9 1 1 6 1 19 35 42 49 53 53 69 64 62 78 97 100 102 103 103 104 102 103 102 103 103 101 98 97 95 94 92 90
270 240 164 313 73 73 40 343 306 301 301 359 3 26 34 19 28 25 42 60 63 66 66 60 71 87 97 100 102 104 104 104 106 106 106 104 102 99 97 97 97 92 86 85
292 181 148 5 316 91 341 270 290 24 306 355 354 21 27 24 36 41 49 68 74 55 62 72 87 98 101 104 107 106 106 106 105 105 103 101 100 100 97 95 94 89 86 82
280 77 37 242 46 138 138 217 265 264 333 310 46 50 55 53 50 65 75 81 82 79 84 92 99 100 102 105 106 107 105 104 104 103 101 101 99 93 94 94 88 85 82 77
54 276 209 161 222 175 148 288 194 161 351 27 314 331 40 59 74 79 80 86 88 93 96 100 101 105 106 106 105 103 102 101 100 100 101 100 98 98 92 86 85 81 76 75
343 116 226 211 217 138 116 348 185 168 192 168 157 37 280 88 105 113 111 107 108 107 107 106 106 108 109 108 107 103 104 104 106 105 103 99 95 91 89 88 85 81 73 64
238 270 292 178 155 149 84 220 170 176 181 185 219 182 155 139 126 125 122 119 116 115 111 108 112 115 111 109 103 104 105 106 105 101 97 92 90 86 83 82 80 74 68 64
60 33 305 149 131 164 167 145 164 173 182 183 159 152 152 141 132 129 127 129 129 125 120 119 117 115 109 106 106 109 109 107 103 103 102 96 92 90 84 73 64 66 60 50
180 215 159 180 155 166 160 155 167 167 164 163 159 160 157 155 152 149 146 140 135 131 128 127 125 122 119 112 113 110 111 108 105 97 95 97 92 78 67 63 55 48 43 38
37 235 205 194 181 171 169 162 163 167 164 169 166 166 165 166 164 160 157 154 145 138 134 129 127 124 115 114 115 118 115 108 102 100 95 85 73 67 58 50 41 34 29 22
260 162 185 223 211 186 176 174 170 172 176 175 177 176 174 173 174 173 167 161 156 154 148 140 133 129 124 122 118 119 110 105 104 101 93 84 78 69 50 37 29 23 16 9
220 196 180 207 192 183 180 180 181 178 179 185 186 182 182 182 180 178 175 172 169 165 159 152 147 144 137 129 125 119 109 99 89 75 61 48 35 25 18 16 13 6 358 353
250 221 193 205 183 182 184 185 186 188 189 185 187 191 188 186 186 184 183 182 180 176 171 168 160 156 147 138 130 120 117 108 86 68 51 34 18 5 352 347 344 344 347 344
223 172 151 176 181 186 188 188 190 191 193 194 194 191 194 193 193 192 192 189 188 186 183 181 178 175 169 159 153 154 141 119 112 102 73 13 354 350 347 338 334 343 346 342
208 202 211 195 190 189 190 191 193 196 195 195 198 200 197 199 201 200 198 199 198 197 197 196 194 190 183 180 183 183 181 189 192 200 294 337 346 350 348 347 346 343 343 345
198 206 206 200 194 194 194 196 200 200 200 200 200 201 203 204 204 205 207 207 207 206 203 204 203 201 200 202 207 204 207 215 225 246 287 322 339 343 344 348 348 343 341 343
189 201 201 198 199 199 202 204 206 207 205 205 205 204 203 204 206 210 212 214 214 213 216 216 213 212 211 213 218 220 224 231 241 256 280 301 316 326 335 340 342 341 338 340
225 224 217 214 206 205 206 208 210 212 212 212 209 209 209 210 213 213 214 215 216 217 218 216 217 220 222 224 227 230 235 242 250 258 272 287 302 316 324 330 334 336 337 339
222 224 227 228 223 218 215 214 214 216 215 215 214 216 218 221 221 221 220 220 223 224 225 221 221 224 225 227 231 234 238 244 251 258 267 278 291 302 312 322 328 332 334 333
216 214 219 222 225 228 224 222 220 220 219 218 220 221 222 224 225 225 226 230 236 240 231 230 231 231 231 232 235 238 242 244 249 256 265 276 288 297 306 314 320 326 329 330
224 208 216 217 219 224 229 230 227 225 225 223 224 226 228 229 230 231 231 234 236 236 234 234 237 237 235 235 237 240 243 247 251 257 263 272 282 290 299 307 315 322 326 328
234 210 215 217 218 223 224 228 230 231 231 230 230 230 231 233 234 236 240 244 247 242 242 237 238 239 238 238 241 242 244 246 250 254 261 268 279 286 293 299 308 315 321 325
253 229 213 215 218 222 228 229 231 232 234 235 236 237 238 240 240 239 242 244 245 245 243 243 241 244 242 241 243 244 244 245 248 253 258 263 277 283 287 293 300 310 319 325
270 229 200 206 217 223 227 229 233 236 239 241 242 243 243 243 245 246 246 251 250 252 254 252 248 245 245 242 243 243 244 245 246 252 257 260 274 284 289 293 298 307 319 324
22 177 177 201 227 231 231 232 237 240 242 244 245 246 245 245 247 252 252 254 256 256 254 254 250 245 245 243 242 242 243 245 245 251 255 260 275 286 286 291 294 307 318 321
48 128 185 212 241 243 240 240 244 246 248 251 253 254 254 253 252 253 255 255 254 255 254 251 250 247 244 242 241 241 241 240 238 251 254 258 273 279 281 286 293 309 316 322
55 64 208 249 258 264 261 255 253 254 254 255 258 260 261 260 259 259 259 257 256 254 254 253 249 246 244 241 239 238 236 235 237 251 253 255 267 272 276 280 294 307 314 321